Location: Hilde
(52.9479°N, 6.4449°E)
Time: 04:42:35
(UTC+00:00)

Okean O Rocket - Pass Details

Date: 15 May 2026
Orbit: 614 x 633 km, 98.0° (Epoch: 6 June)

Event Time Altitude Azimuth Distance (km) Brightness Sun altitude
Exits shadow 21:29:46 - 209° (SSW) 2,660 4.5 -13.4°
Reaches altitude 10° 21:31:55 10° 225° (SW) 1,973 4.0 -13.6°
Maximum altitude 21:34:55 18° 270° (W) 1,502 3.9 -13.8°
Drops below altitude 10° 21:37:57 10° 315° (NW) 1,986 5.4 -14.0°
Sets 21:40:45 0° 334° (NNW) 2,899 7.0 -14.2°
